Location: Marcé
(47.5801°N, 0.3280°W)
Time: 14:19:27
(UTC+01:00)

Vanguard 3 - Pass Details

Date: 06 December 2021
Orbit: 508 x 3260 km, 33.3° (Epoch: 20 January)

Event Time Altitude Azimuth Distance (km) Brightness Sun altitude
Rises 09:25:29 0° 274° (W) 7,091 11.5 5.9°
Reaches altitude 10° 09:31:29 10° 265° (W) 5,818 11.1 6.6°
Maximum altitude 09:44:23 28° 216° (SW) 3,622 10.7 8.2°
Drops below altitude 10° 09:53:23 10° 163° (SSE) 3,973 12.1 9.2°
Sets 09:56:36 0° 152° (SSE) 4,584 12.9 9.5°
